Погода в Кливленде

США     41°29′57″N   81°41′37″W
темп.,
°C
ветер,
м/с
пор.,
м/с
влажн.,
%
обл.,
%
осадки,
мм/ч
давл.,
гПа
погр.,
м
15 мая, сб
сб1523:00+12ю22515 0.0 102513
02:00+10ю34625 0.0 102445
05:00+10ююз23655 0.0 102547
08:00+11ю3462100 0.0 1026104
11:00+15зюз235633 0.0 1026297
14:00+16сз3353100 0.0 10251220
17:00+16ссз2251100 0.0 1023501
20:00+15юв2258100 0.0 102329
16 мая, вс
вс1623:00+13юв3471100 0.0 102360
02:00+12ююз3473100 0.0 102366
05:00+12зсз3583100 0.1 1024119
08:00+11св2392100 0.8 1026124
11:00+12в3492100 1.3 102587
14:00+13св228291 1.4 102497
17:00+15с32687 0.1 1023555
20:00+13св3476100 0.1 102377
17 мая, пн
пн1723:00+12юв2485100 0.0 102466
02:00+12юв2384100 0.0 102355
05:00+11ююв2388100 0.0 102352
08:00+12юв2385100 0.0 102473
11:00+16юв1271100 0.0 1024318
14:00+17с126796 0.0 1024623
17:00+16св2272100 0.0 1024264
20:00+15всв3380100 0.0 102438
18 мая, вт
вт1823:00+14вюв2385100 0.0 102531
02:00+13юв2384100 0.0 102532
05:00+12юв3385100 0.0 102552
08:00+13юв2482100 0.0 102781
11:00+18вюв2366100 0.0 1026327
14:00+19св1261100 0.0 1025713
17:00+18ссв3371100 0.0 1025466
20:00+16св2276100 0.0 102519
19 мая, ср
ср1923:00+16ююв2278100 0.0 102617
02:00+15ююв228498 0.0 102623
05:00+15ююв238196 0.0 102652
08:00+15ююв3476100 0.0 102791
11:00+19зюз3469100 0.0 1028296
14:00+18юв2278100 0.1 102773
17:00+21ю2365100 0.0 1026296
20:00+19в1276100 0.0 102511